EW7175 Weather Reports


time (UTC)temp
C
wind
direction
speed
KPH
gust
KPH
rain 1hr
cm
rain 24hr
cm
rain mn
cm
humidity
%
barometer
mb
20260505193058 28 174 0.0 0.0 0.00 0.00 0.00 76 1006.8
20260505191611 28 162 0.0 0.0 0.00 0.00 0.00 75 1006.9
20260505190057 28 176 0.0 0.0 0.00 0.00 0.00 75 1006.9
20260505184552 27 175 0.0 0.0 0.00 0.00 0.00 77 1007.1
20260505183052 27 170 0.0 0.0 0.00 0.00 0.00 78 1007.2
20260505181550 27 210 0.0 0.0 0.00 0.00 0.00 80 1007.3
20260505180051 27 165 0.0 0.0 0.00 0.00 0.00 80 1007.4
20260505174547 26 176 0.0 0.0 0.00 0.00 0.00 81 1007.5
20260505173043 26 180 0.0 0.0 0.00 0.00 0.00 82 1007.8
20260505171545 26 179 0.0 0.0 0.00 0.00 0.00 84 1007.8
20260505170101 25 350 0.0 0.0 0.00 0.00 0.00 86 1008.0
20260505164543 26 151 0.0 0.0 0.00 0.00 0.00 84 1008.0
20260505163042 26 196 0.0 0.0 0.00 0.00 0.00 83 1007.9
20260505161538 25 157 0.0 0.0 0.00 0.00 0.00 84 1007.8
20260505153036 25 208 0.0 0.0 0.00 0.00 0.00 85 1007.6
20260505151549 25 180 0.0 0.0 0.00 0.00 0.00 85 1007.6
20260505124512 22 138 0.0 0.0 0.00 0.00 0.00 91 1007.0
20260505123007 22 170 0.0 0.0 0.00 0.00 0.00 91 1007.1
20260505121508 22 148 0.0 0.0 0.00 0.00 0.00 91 1007.1
20260505120004 22 180 0.0 0.0 0.00 0.00 0.00 91 1006.7
20260505114559 22 180 0.0 0.0 0.00 0.00 0.00 91 1006.6
20260505113056 21 172 0.0 0.0 0.00 0.00 0.00 91 1007.0
20260505111555 21 178 0.0 0.0 0.00 0.00 0.00 91 1006.7
20260505101556 21 158 0.0 0.0 0.00 0.00 0.00 90 1006.8
20260505100053 21 181 0.0 0.0 0.00 0.00 0.00 90 1006.9
20260505094549 21 173 0.0 0.0 0.00 0.00 0.00 89 1007.0
20260505093048 21 163 0.0 0.0 0.00 0.00 0.00 89 1006.9
20260505091547 21 184 0.0 0.0 0.00 0.00 0.00 89 1007.2
20260505090057 21 159 0.0 0.0 0.00 0.00 0.00 89 1007.1
20260505084550 21 175 0.0 0.0 0.00 0.00 0.00 89 1007.2
20260505083049 21 174 0.0 0.0 0.00 0.00 0.00 88 1007.3
20260505081544 21 177 0.0 0.0 0.00 0.00 0.00 88 1007.6
20260505080039 22 179 0.0 0.0 0.00 0.00 0.00 87 1007.6
20260505074538 22 194 0.0 0.0 0.00 0.00 0.00 87 1007.8
20260505073040 22 157 0.0 0.0 0.00 0.00 0.00 86 1007.8
20260505071535 21 178 0.0 0.0 0.00 0.00 0.00 86 1008.0
20260505070034 21 169 0.0 0.0 0.00 0.00 0.00 85 1008.0
20260505064532 21 205 0.0 0.0 0.00 0.00 0.00 85 1008.1
20260505063030 21 173 0.0 0.0 0.00 0.00 0.00 84 1008.2
20260505061530 21 169 0.0 0.0 0.00 0.00 0.00 84 1008.5
20260505060032 22 139 0.0 0.0 0.00 0.00 0.00 83 1008.7
20260505054535 22 157 0.0 0.0 0.00 0.00 0.00 83 1008.6
20260505053023 22 173 0.0 0.0 0.00 0.00 0.00 82 1008.8
20260505051521 22 156 0.0 0.0 0.00 0.00 0.00 82 1009.0
20260505041516 22 157 0.0 0.0 0.00 0.00 0.00 79 1009.0
20260505040017 22 157 0.0 0.0 0.00 0.00 0.00 78 1009.0
20260505034516 22 145 0.0 0.0 0.00 0.00 0.00 78 1009.1
20260505033019 23 159 0.0 0.0 0.00 0.00 0.00 77 1009.5
20260505031515 23 178 0.0 0.0 0.00 0.00 0.00 76 1009.3
20260505030020 23 138 0.0 0.0 0.00 0.00 0.00 76 1009.1
20260505024514 23 158 0.0 0.0 0.00 0.00 0.00 75 1009.1
20260505023015 23 144 0.0 0.0 0.00 0.00 0.00 74 1009.3
20260505021513 23 144 0.0 0.0 0.00 0.00 0.00 74 1009.0
20260505020013 23 221 0.0 0.0 0.00 0.00 0.00 73 1009.0
20260505014515 24 138 0.0 0.0 0.00 0.00 0.00 72 1008.8
20260505013012 24 157 0.0 0.0 0.00 0.00 0.00 72 1008.6
20260505011517 24 160 0.0 0.0 0.00 0.00 0.00 71 1008.5
20260505010011 24 144 0.0 0.0 0.00 0.00 0.00 71 1008.7
20260505004523 24 157 0.0 0.0 0.00 0.00 0.00 70 1008.6
20260505003011 25 186 0.0 0.0 0.00 0.00 0.00 69 1008.3
20260505001509 25 171 0.0 0.0 0.00 0.00 0.00 69 1008.5
20260505000014 25 146 0.0 0.0 0.00 0.00 0.00 68 1008.8
20260504234508 25 171 0.0 0.0 0.00 0.00 0.00 67 1008.7
20260504233006 25 166 0.0 0.0 0.00 0.00 0.00 67 1008.8
20260504231514 26 160 0.0 0.0 0.00 0.00 0.00 67 1008.8
20260504230004 26 152 0.0 0.0 0.00 0.00 0.00 65 1009.1
20260504224503 26 153 0.0 0.0 0.00 0.00 0.00 64 1009.1
20260504223002 26 162 0.0 0.0 0.00 0.00 0.00 63 1009.2
20260504221606 26 166 0.0 0.0 0.00 0.00 0.00 61 1009.4
20260504220059 26 155 0.0 0.0 0.00 0.00 0.00 60 1009.5
20260504214602 27 63 0.0 0.0 0.00 0.00 0.00 60 1009.6
20260504213103 27 223 0.0 0.0 0.00 0.00 0.00 60 1009.7
20260504211555 27 200 0.0 0.0 0.00 0.00 0.00 59 1009.9
20260504204633 28 221 0.0 0.0 0.00 0.00 0.00 56 1010.5
20260504203050 28 156 0.0 0.0 0.00 0.00 0.00 55 1010.6
20260504201546 27 178 0.0 0.0 0.00 0.00 0.00 57 1010.9
20260504200043 27 153 0.0 0.0 0.00 0.00 0.00 55 1011.2
20260504194548 27 173 0.0 0.0 0.00 0.00 0.00 56 1011.3